Wind_Speed
44 43 42 43 41 39 37 36 37 36 36 39 44 45 44 43 43 42 39 37 36 35 35 34 32 29 28 25 23 22 21 19 19 21 22 23 24 27 28 20 13 8 10 12 11 9 7 6 5 4 6 9 10 9 11 11 9 6 1 2 3 3 3 3 3 4 7 7 5 12 13 8 6 6 5 4 4 5 8 7 7 7 7 9 12 15 13 14
42 43 43 43 42 40 37 35 36 36 35 37 42 45 45 44 43 42 40 38 36 35 34 33 32 29 28 25 22 21 20 20 22 23 21 19 19 24 26 21 15 8 11 13 12 10 9 8 5 5 9 10 10 10 9 10 10 6 2 3 3 1 2 5 8 7 7 9 9 11 11 8 8 11 8 4 6 7 6 7 9 8 9 11 13 14 12 14
42 43 44 43 42 40 37 34 34 35 36 37 39 43 44 44 44 42 41 39 37 35 33 33 32 29 27 25 24 20 19 20 21 26 25 19 16 19 21 19 17 9 11 13 13 11 11 11 9 8 12 11 11 11 8 7 9 7 4 2 3 4 6 11 14 10 9 12 12 11 9 6 9 12 9 6 8 9 7 9 13 12 12 13 14 13 13 16
45 45 43 42 40 39 36 34 33 34 36 37 38 41 43 43 43 43 42 40 37 34 33 33 32 30 27 25 23 20 18 14 19 31 30 23 19 19 20 20 19 12 12 14 13 12 11 13 13 11 14 11 12 12 8 9 8 5 3 1 1 7 8 9 13 10 9 10 12 12 8 6 8 9 9 8 6 6 9 12 15 15 16 16 16 14 12 17
43 44 42 40 38 37 36 33 33 33 35 37 37 39 41 42 43 44 43 41 38 35 33 32 33 32 26 21 19 20 16 5 14 32 35 28 23 20 20 21 19 15 12 16 13 13 12 14 16 13 15 10 10 9 7 13 10 2 2 2 5 7 7 5 10 10 8 7 11 13 7 8 8 7 9 9 3 3 4 9 13 14 16 16 15 14 12 16
40 41 41 40 37 36 36 33 32 33 33 35 35 37 39 41 42 42 43 42 39 36 33 33 33 32 27 21 19 19 17 6 5 18 32 33 26 21 21 19 17 18 14 18 15 13 14 15 17 13 14 9 9 8 8 16 12 3 2 4 7 8 9 5 8 10 8 7 9 10 8 11 9 6 10 10 3 5 5 7 11 9 10 13 14 13 12 14
42 42 42 42 39 36 35 33 33 34 33 33 34 35 36 38 40 40 42 42 39 37 34 34 32 31 28 24 21 19 21 18 3 3 18 29 26 23 22 18 17 19 17 20 17 14 14 15 18 13 12 8 9 12 12 15 13 6 2 5 5 10 11 7 9 11 10 7 7 8 8 10 8 5 9 10 5 5 2 4 7 7 8 11 12 11 11 11
45 45 44 41 40 36 36 34 33 35 35 33 33 34 34 34 37 39 40 41 40 38 35 35 32 30 29 27 25 19 21 29 15 3 8 23 26 27 24 21 20 19 18 19 18 16 14 16 19 15 9 8 10 14 14 12 9 8 3 8 7 9 10 9 10 11 11 8 6 7 6 6 5 4 6 9 8 8 7 5 6 8 10 11 10 9 10 11
46 47 44 39 38 37 35 34 35 37 36 34 33 34 34 33 34 37 39 39 40 39 37 36 34 32 30 29 26 17 22 32 24 8 7 20 29 32 28 23 23 20 18 20 20 17 16 16 19 16 9 9 10 11 16 10 6 10 6 11 10 9 11 10 10 10 9 7 8 7 4 4 3 2 4 9 10 11 10 9 8 9 11 12 11 11 10 12
46 47 45 40 38 36 35 35 36 39 37 35 33 34 34 33 32 34 38 38 38 39 38 36 34 33 30 30 22 11 20 29 28 18 7 16 29 35 32 23 22 22 18 23 23 19 19 17 17 15 9 8 10 9 16 8 7 13 9 12 12 11 11 9 9 10 8 7 9 6 5 5 2 2 3 8 13 13 11 10 11 11 10 11 12 12 12 12
46 46 47 43 39 37 37 37 38 40 38 34 32 33 33 33 31 31 35 37 37 38 37 35 34 33 30 30 23 12 19 24 30 25 9 12 22 30 33 25 22 23 21 28 26 22 21 19 17 13 7 4 7 6 13 6 5 15 14 12 9 9 9 8 9 11 8 6 8 3 4 6 3 2 5 10 15 14 13 11 12 12 12 11 12 12 13 14
47 46 47 44 39 38 38 38 39 40 39 35 31 31 31 32 31 30 32 34 36 36 35 34 32 32 29 26 25 22 19 18 29 31 16 12 16 21 27 24 24 24 27 32 26 23 20 18 18 13 9 4 5 3 8 5 5 16 15 7 4 6 5 7 8 10 7 4 8 4 2 3 3 9 12 12 14 14 14 12 12 13 13 13 13 14 14 15
49 48 48 44 41 39 38 39 40 40 40 36 31 31 30 30 30 29 30 33 35 35 33 33 31 32 29 20 22 24 16 14 23 30 25 17 14 20 25 23 27 29 30 30 23 21 19 18 18 14 13 8 5 3 3 6 7 10 9 4 4 3 3 8 8 8 6 5 10 5 0 4 7 15 16 13 14 13 13 13 13 12 13 15 15 16 16 16
51 50 48 44 42 40 39 39 40 41 39 36 31 29 29 28 29 27 29 30 31 33 32 31 32 32 27 18 20 23 15 13 18 23 27 25 18 17 22 24 26 27 28 27 21 17 19 20 17 12 12 10 7 7 2 5 6 6 5 3 5 3 3 7 9 9 5 4 10 6 1 5 3 7 14 15 14 13 13 12 12 12 12 16 17 18 18 18
52 52 49 43 42 40 39 40 41 41 39 36 31 28 28 27 27 26 27 27 26 29 30 31 33 29 21 15 18 21 18 14 15 18 20 23 22 16 20 25 25 24 25 25 19 15 18 19 16 10 8 8 8 6 1 2 3 4 4 4 4 4 3 4 8 11 6 4 10 6 2 6 0 6 11 14 13 12 12 12 13 13 13 16 18 19 19 19
54 54 51 45 43 41 41 41 41 41 39 36 31 27 27 24 24 24 24 25 22 24 28 30 33 24 12 10 14 20 23 20 15 16 17 19 21 17 20 25 23 22 23 24 19 12 14 16 13 9 5 5 4 4 3 2 3 4 4 4 4 5 4 2 4 8 7 6 8 6 3 3 2 5 9 11 12 11 11 11 12 14 14 15 17 18 19 19
55 55 51 46 44 42 42 42 41 42 39 37 32 28 27 24 23 22 20 23 22 23 25 28 28 16 5 7 13 20 27 26 19 16 17 18 19 17 20 23 22 21 21 21 17 11 12 14 9 5 5 4 3 4 4 5 4 4 4 3 4 5 5 4 2 5 8 7 6 7 4 4 3 7 10 10 12 12 10 10 11 12 13 14 15 16 17 19
55 54 50 47 45 42 43 42 43 42 40 38 32 30 27 22 22 20 21 24 22 20 18 21 21 6 6 13 15 19 26 28 23 16 16 19 19 18 20 21 20 20 17 14 14 13 13 11 7 4 4 4 5 5 4 4 4 3 5 4 4 6 7 6 2 4 9 5 4 7 6 9 5 6 11 12 13 14 13 12 11 12 12 13 15 15 16 18
58 54 50 48 45 44 44 43 45 43 42 40 34 32 26 22 21 18 23 28 28 18 7 22 28 4 3 17 17 17 23 26 24 17 16 20 19 18 18 16 19 20 15 9 9 14 12 6 5 4 4 5 6 7 5 4 5 5 5 4 4 5 5 4 1 3 7 4 4 7 7 9 8 7 11 15 16 16 15 14 13 13 13 14 15 16 16 17
59 55 51 48 45 46 45 45 47 45 47 43 38 35 26 25 18 12 25 31 37 26 4 28 39 4 5 22 22 19 19 21 23 18 16 21 21 19 17 15 18 17 11 7 6 13 13 5 4 5 5 7 7 8 8 5 5 7 7 5 3 3 2 3 2 1 0 2 6 8 7 7 8 8 9 16 18 15 15 15 15 15 15 16 16 16 17 17
58 53 50 47 46 48 46 48 48 48 50 46 44 36 31 38 19 15 35 28 35 31 4 26 38 6 8 25 26 25 22 17 18 20 17 20 22 17 15 16 13 9 9 10 8 10 12 5 5 7 7 7 8 9 7 3 3 5 8 6 4 4 2 2 2 1 2 1 5 7 8 9 8 7 8 11 14 13 17 17 17 18 18 18 18 18 17 16
56 51 49 48 49 49 49 51 48 48 46 42 47 35 36 46 19 22 41 18 22 27 8 28 32 6 12 22 24 26 22 15 13 20 20 22 23 15 14 15 9 6 8 10 7 6 7 5 6 10 10 8 8 10 7 2 3 1 4 5 4 3 3 2 3 1 2 1 1 1 3 7 7 6 9 11 12 14 19 20 19 20 20 21 20 19 19 17
54 51 50 50 51 50 51 51 44 44 41 41 49 34 31 36 11 19 36 16 12 16 12 33 25 7 16 20 23 22 17 14 13 20 24 26 24 15 15 13 8 9 9 9 7 5 5 4 6 9 10 5 5 8 6 2 1 1 2 4 4 4 4 1 1 1 2 1 1 3 3 5 6 6 8 14 18 17 19 20 19 20 21 22 21 20 20 20
52 52 52 52 53 53 51 45 39 41 41 45 48 30 24 28 18 29 31 14 8 8 14 31 19 11 16 16 22 19 13 13 14 22 28 28 23 15 14 13 9 8 8 10 10 7 5 2 3 4 7 5 2 5 5 3 2 3 2 2 3 5 4 2 3 2 2 1 1 2 4 5 6 8 9 12 18 18 18 19 18 20 21 20 20 20 19 20
53 53 54 54 53 53 48 42 42 42 41 46 42 27 23 29 32 37 24 10 7 6 11 21 15 12 13 15 21 16 11 10 13 24 30 29 22 12 12 14 10 7 9 11 9 6 5 1 1 2 5 7 4 3 5 5 3 3 2 1 2 6 7 6 6 4 3 1 2 2 1 6 5 8 10 7 9 12 14 15 17 20 21 21 22 22 20 21
55 54 56 56 53 53 47 42 44 43 42 47 38 27 31 36 36 33 17 6 4 5 7 14 14 14 13 16 22 17 9 7 12 25 31 28 21 13 11 9 4 5 9 8 4 2 2 1 1 4 6 6 5 4 4 6 3 3 3 1 2 8 9 8 7 4 3 2 2 2 3 5 4 4 7 5 6 7 8 9 14 18 19 22 25 25 24 24
55 55 57 57 54 55 50 44 46 45 48 48 35 30 38 42 36 27 13 2 4 6 7 8 11 15 15 19 25 15 5 9 14 22 31 27 19 13 9 6 3 3 6 5 2 1 2 2 1 3 6 5 5 3 4 7 4 3 3 3 5 9 8 7 6 3 2 2 2 2 2 2 4 5 4 5 5 5 6 7 11 16 19 21 21 22 23 24
56 56 58 56 54 54 48 46 50 50 52 47 34 34 43 43 32 19 7 2 5 8 8 7 8 13 16 22 24 8 6 18 13 14 29 26 16 10 6 7 6 3 2 5 6 1 2 3 2 4 5 3 4 1 2 7 4 2 2 3 2 6 6 7 5 2 2 3 1 3 1 0 4 6 2 3 3 5 7 8 10 14 18 17 16 16 18 20
57 58 57 55 53 47 39 44 51 51 51 44 33 38 44 36 21 8 2 4 6 5 7 10 8 13 18 20 17 5 8 16 6 11 27 22 14 8 3 8 10 6 5 4 5 0 2 2 1 3 5 3 3 2 3 3 3 4 3 3 5 4 4 4 4 3 3 1 3 5 5 2 4 5 3 2 3 6 8 7 8 13 16 14 14 14 15 16
58 58 56 55 52 42 35 40 46 48 49 41 35 40 39 25 11 5 4 5 4 4 9 11 10 14 18 14 9 7 8 5 6 17 21 14 13 9 4 11 12 7 5 7 6 1 1 2 3 2 3 2 4 3 5 2 6 7 4 5 6 5 5 3 1 4 3 2 3 4 5 3 3 5 5 4 4 4 5 3 5 10 13 12 11 11 11 12
58 57 55 56 52 42 39 41 46 49 47 38 38 40 29 12 4 5 7 6 6 5 7 9 10 14 17 13 8 9 6 4 10 19 13 7 9 6 6 10 8 5 3 4 4 2 2 3 2 2 2 2 4 3 6 4 5 5 3 5 5 4 4 4 3 2 1 3 3 3 2 1 3 5 3 3 3 2 3 4 6 8 10 11 9 8 9 10
57 55 54 54 48 39 39 45 50 52 43 37 42 37 19 6 4 3 6 8 7 5 6 10 13 14 16 14 8 9 7 5 10 14 10 8 6 5 7 5 4 4 3 3 3 2 3 2 1 2 1 3 3 3 4 4 2 0 3 7 5 1 1 1 1 1 2 3 3 2 3 1 5 6 6 6 5 5 3 4 9 12 12 9 8 8 8 9
56 53 52 51 43 34 37 47 54 49 38 36 39 27 10 6 7 6 6 6 6 9 10 12 15 15 15 12 8 9 7 5 10 11 9 9 7 6 6 5 8 5 3 5 4 2 2 2 1 3 1 5 4 4 3 1 2 3 5 6 5 4 2 2 3 2 3 3 4 4 1 2 4 5 9 11 8 7 7 8 12 14 12 9 8 8 8 8
55 52 51 48 40 34 37 49 54 44 37 36 28 14 8 8 8 8 7 5 6 11 13 12 15 16 14 10 8 9 6 3 9 10 9 9 7 7 7 8 11 5 4 6 4 5 5 1 2 3 1 5 5 2 3 5 4 5 4 5 4 4 4 4 4 3 3 1 3 3 1 3 3 3 6 5 2 7 10 11 12 12 10 9 8 8 7 8
53 51 49 45 39 35 40 51 51 41 39 33 15 7 9 9 8 9 8 5 6 10 13 15 16 15 11 8 9 11 5 3 7 8 8 9 8 9 8 7 10 7 6 6 3 5 7 3 1 1 1 2 4 1 1 4 4 3 2 4 3 4 4 3 2 3 4 2 1 2 2 4 4 3 4 4 6 9 10 10 11 10 9 9 9 9 8 8
52 49 46 44 40 37 43 51 46 40 39 25 9 7 9 7 6 8 7 7 9 12 16 15 12 12 10 6 9 10 3 3 8 6 7 9 7 9 9 7 11 10 6 7 3 3 6 2 3 2 3 2 2 1 2 2 2 1 2 3 4 3 6 5 1 0 3 1 2 3 3 5 3 4 4 6 5 5 7 7 9 10 10 10 11 11 10 10
51 48 44 44 40 37 44 49 44 41 34 16 7 10 8 4 4 5 8 10 13 16 16 13 9 11 12 7 10 13 6 5 8 6 6 8 7 10 12 9 13 13 8 6 3 2 5 2 3 1 1 2 2 2 3 3 2 3 3 4 2 1 3 3 1 1 2 2 2 4 5 4 2 3 1 5 5 5 6 7 8 10 11 13 14 13 12 12
50 45 42 43 39 36 42 45 42 39 25 9 9 11 7 4 2 4 12 14 15 16 13 10 9 10 12 9 9 13 11 8 8 6 7 6 5 10 13 9 13 17 12 6 3 2 5 4 2 2 1 1 2 2 2 2 3 3 2 1 2 1 1 2 3 2 2 2 3 3 6 5 4 4 2 4 8 8 7 8 8 10 14 15 15 15 14 15
46 35 30 38 38 33 38 42 40 32 16 7 10 9 5 4 1 4 17 18 14 14 11 9 9 8 10 10 10 13 12 10 9 6 5 5 3 8 14 9 9 17 15 7 4 3 4 4 1 2 1 1 2 0 4 3 1 1 2 2 2 2 2 3 3 3 3 3 3 3 3 4 5 6 6 8 10 9 9 8 8 12 17 19 18 18 17 17
40 23 17 34 38 33 39 40 31 19 10 8 10 6 4 4 1 2 16 19 12 8 9 9 11 10 10 11 11 11 10 9 11 7 5 7 4 4 12 10 7 14 16 7 3 2 2 3 3 0 2 1 1 2 5 6 4 2 1 2 2 1 2 1 2 2 3 3 3 3 3 5 5 5 7 8 7 7 10 9 8 14 19 20 20 20 19 19
32 11 13 34 35 35 41 31 17 11 8 9 9 5 5 6 3 2 7 12 8 3 4 8 11 10 9 11 12 10 9 8 10 8 4 8 7 3 9 12 10 12 11 5 3 2 1 2 4 3 1 2 1 2 0 3 5 5 3 5 5 4 3 1 3 3 2 2 3 3 3 6 5 2 2 3 3 1 6 11 11 15 20 20 21 21 20 20
19 5 17 35 36 42 40 18 9 11 7 7 5 5 7 8 7 5 3 6 6 2 1 5 9 9 7 9 10 10 10 7 9 9 5 8 9 4 8 16 18 18 12 6 3 1 3 4 5 3 2 2 0 1 2 1 2 2 2 3 4 4 4 4 4 4 2 1 1 2 2 6 5 2 4 3 4 4 4 10 13 16 20 21 21 21 21 21
12 13 23 34 38 45 32 9 8 9 4 5 6 6 8 7 5 6 5 4 4 2 1 3 8 10 7 7 9 11 11 8 9 11 8 7 6 2 8 19 22 18 10 5 3 3 4 4 4 3 2 2 2 1 1 1 1 1 3 4 4 4 5 5 4 3 3 2 2 2 3 6 5 3 4 4 1 2 3 8 13 16 18 19 21 21 22 23
22 27 26 32 39 38 20 7 11 11 7 8 7 4 5 4 5 8 7 6 5 4 3 3 6 8 5 5 8 11 12 7 6 9 6 5 4 1 6 22 23 13 8 8 9 8 5 3 4 4 2 2 2 1 1 2 3 3 3 3 3 1 3 3 1 1 1 4 6 5 5 7 5 4 3 3 3 2 3 6 11 14 17 19 21 22 24 25
24 21 20 32 39 27 11 4 8 10 10 10 7 7 6 4 3 8 10 7 4 5 4 2 5 7 5 5 6 8 12 7 4 6 4 4 3 3 4 20 22 11 6 11 16 14 7 4 5 5 4 5 5 5 4 3 2 1 1 2 4 4 5 4 2 2 3 5 7 5 5 6 4 3 3 4 3 4 6 8 10 13 17 19 21 24 26 27
14 8 11 22 27 19 9 4 3 6 11 10 7 8 9 5 1 4 9 6 1 5 5 3 6 7 5 7 7 7 11 6 3 6 5 4 2 3 2 12 15 10 6 12 20 15 4 3 8 8 8 9 8 5 4 6 5 4 6 7 8 9 9 6 3 4 5 5 4 5 6 8 7 4 4 6 6 6 6 10 12 13 17 20 23 25 27 28
9 7 9 12 13 12 9 7 6 5 11 12 8 8 12 10 5 3 3 2 4 6 4 2 6 8 7 11 9 7 10 6 5 7 7 5 3 2 3 5 7 8 7 13 19 12 4 3 8 10 12 11 9 7 6 9 8 10 12 13 12 11 11 8 7 9 8 5 7 8 9 12 13 8 7 7 7 6 6 12 17 17 18 20 23 25 26 26
6 6 12 14 10 7 7 9 10 8 11 14 7 7 13 12 10 8 2 1 6 6 3 2 6 10 13 14 9 7 9 6 4 7 7 5 4 4 4 6 5 4 4 8 11 6 3 6 8 9 12 10 7 6 5 8 9 10 12 14 14 13 12 12 13 14 10 7 9 13 14 15 15 9 8 9 9 10 12 16 19 18 18 20 23 25 26 26
7 7 10 13 6 3 6 8 8 6 9 13 8 7 14 14 13 10 4 4 6 5 4 6 8 11 13 12 8 8 10 9 7 7 5 6 5 5 3 2 3 2 3 4 4 1 2 5 7 10 11 10 8 5 3 5 8 9 11 13 13 13 14 14 15 17 15 13 14 16 15 15 12 7 7 10 13 15 15 15 16 18 21 23 24 27 27 28
5 5 7 8 4 5 11 10 7 5 6 11 9 8 12 14 15 10 5 7 10 7 7 9 12 12 11 11 10 9 11 12 9 8 8 8 5 4 3 4 4 2 2 3 1 0 1 4 6 8 7 10 10 8 6 5 5 7 9 10 10 11 12 14 15 15 14 14 15 16 13 12 12 8 6 9 11 12 12 15 18 20 23 24 25 27 29 30
6 6 8 9 4 3 10 9 7 6 6 9 9 9 11 14 15 11 4 3 8 10 10 10 11 10 9 11 12 9 11 11 8 13 17 14 12 10 6 6 10 7 3 4 4 2 3 3 4 7 5 8 10 13 12 7 2 4 6 6 9 11 11 13 14 14 13 12 13 13 11 12 12 9 7 8 10 13 14 17 19 19 21 24 25 28 31 33
8 8 9 10 3 1 5 8 7 8 7 8 9 9 10 11 13 12 5 0 1 6 11 11 11 9 8 11 11 8 11 10 9 18 22 17 16 15 10 13 19 15 7 6 4 4 5 5 4 7 6 7 9 12 10 3 2 5 8 9 12 12 12 11 11 12 13 12 10 10 12 13 11 8 9 8 8 11 15 19 19 18 22 25 27 29 31 34
Wind_Direction
209 207 206 205 205 205 206 207 204 200 199 203 206 207 205 203 201 198 198 197 198 198 199 200 200 200 202 205 207 209 209 207 206 205 207 213 218 222 228 237 232 252 303 305 304 299 284 253 233 218 244 246 231 238 223 204 198 202 265 203 213 221 186 172 146 113 133 133 136 159 161 150 143 166 162 141 138 124 133 141 144 151 148 131 139 159 172 178
208 209 207 204 205 204 205 207 206 201 200 203 204 207 207 205 204 201 201 200 200 201 200 201 201 204 206 207 208 210 214 211 213 217 211 208 213 217 225 233 223 246 299 297 304 300 288 271 251 238 234 235 231 224 216 206 192 200 240 207 230 201 56 53 76 64 101 138 147 158 177 171 152 163 165 170 171 160 158 163 158 152 154 150 159 175 181 182
206 210 209 204 206 205 203 205 207 204 201 203 203 206 207 207 206 203 203 202 202 202 203 203 202 205 206 207 209 210 215 216 226 228 219 215 222 226 230 227 213 233 291 292 301 296 278 265 261 243 229 236 231 214 212 206 190 216 236 213 231 127 71 54 78 65 77 129 145 151 179 156 136 154 165 195 177 173 192 175 168 167 170 167 174 189 189 186
208 209 210 203 205 205 202 203 205 205 203 202 202 204 206 207 208 206 205 204 203 203 204 205 205 206 205 207 208 208 212 222 240 231 220 219 229 237 228 210 202 221 279 289 292 287 267 257 265 244 227 238 229 218 214 197 186 212 223 225 229 116 87 62 85 88 86 117 142 143 161 142 137 155 168 203 179 175 214 195 185 187 189 182 179 192 193 186
209 205 209 202 201 205 203 202 203 205 204 203 203 203 205 206 208 208 207 206 204 204 205 205 207 206 204 204 203 205 205 218 251 232 221 218 229 238 214 192 194 206 254 287 283 282 268 254 271 250 225 233 214 219 219 195 188 197 178 44 24 84 93 87 101 109 102 103 129 138 159 151 147 163 178 209 195 138 192 175 176 186 196 194 184 190 193 187
210 203 208 205 200 202 203 203 201 200 201 204 205 204 205 206 207 208 208 208 206 204 205 205 207 205 202 198 196 201 195 181 290 240 220 216 225 226 199 184 189 191 226 279 276 280 276 255 272 251 221 234 192 199 223 197 194 223 158 75 35 83 111 116 116 121 120 110 125 141 158 151 153 176 191 217 200 109 112 135 151 161 184 193 189 190 193 193
211 206 208 205 199 200 201 201 199 197 197 200 205 205 204 206 206 207 208 208 207 205 204 205 205 203 201 197 196 199 199 206 255 332 207 208 219 209 186 185 192 185 213 268 268 265 269 253 268 249 220 244 188 192 216 193 191 232 174 124 75 94 115 125 131 133 133 128 129 144 148 153 173 179 187 218 207 149 146 151 155 153 166 182 187 192 202 206
211 209 207 202 196 198 199 198 195 194 194 195 202 205 205 207 207 206 206 207 207 206 205 204 203 201 200 198 196 194 206 215 219 7 183 193 204 197 181 185 194 189 208 255 262 252 254 250 260 245 225 246 202 191 197 180 192 237 178 136 122 102 120 123 131 140 141 142 136 146 145 149 176 159 183 219 206 199 216 200 170 158 163 180 196 200 205 213
209 207 205 200 194 195 197 196 193 190 191 192 198 204 205 207 208 207 206 206 206 207 206 204 204 202 201 202 197 194 214 216 212 234 228 197 197 193 182 179 191 191 202 246 257 244 241 245 251 244 243 253 232 194 181 174 202 224 179 141 135 115 129 122 125 139 141 149 144 153 144 123 173 167 227 226 195 198 209 202 189 170 167 180 199 207 207 211
206 203 202 198 193 194 194 193 192 190 189 191 198 205 207 207 206 206 206 204 204 207 206 205 205 203 203 202 191 192 223 218 211 217 221 196 196 195 188 177 189 190 202 245 251 237 233 235 247 258 269 277 270 208 179 194 213 198 155 122 129 123 136 131 126 139 134 139 151 164 137 121 179 170 247 211 184 195 201 198 199 195 189 185 194 204 207 211
202 201 200 197 192 193 193 190 191 191 189 190 196 203 205 205 201 202 205 202 203 206 205 205 204 202 205 201 188 198 224 217 209 208 181 173 191 199 196 187 188 187 211 245 247 234 229 230 246 268 273 294 296 202 175 211 189 159 128 100 122 123 130 137 131 146 139 136 164 163 115 119 115 168 225 188 180 197 198 200 208 205 202 195 195 199 204 209
199 200 199 196 192 192 190 189 191 191 190 189 193 200 203 203 200 198 201 201 201 204 203 203 201 201 200 196 199 212 221 213 206 206 199 174 172 187 191 191 198 201 224 242 241 232 227 231 244 255 251 274 316 189 170 205 151 143 136 106 136 130 135 157 144 160 159 150 169 142 90 152 175 220 221 193 187 196 193 202 211 210 203 195 197 199 205 207
198 200 197 194 192 191 188 188 190 190 190 188 190 198 201 202 201 199 200 200 199 200 200 197 195 196 190 185 200 205 209 214 208 208 212 203 178 181 187 197 214 219 227 231 230 230 226 229 236 242 251 268 309 305 200 190 159 155 165 132 143 157 190 171 148 161 156 148 171 156 264 215 226 222 208 191 191 185 179 190 202 212 203 193 195 199 206 207
197 199 196 191 190 190 187 187 189 189 188 186 188 195 197 198 199 198 199 198 195 195 194 190 189 191 188 189 194 190 193 210 208 208 214 214 207 197 189 198 217 218 217 217 218 229 228 227 228 236 255 258 280 306 302 184 168 171 195 166 157 167 192 169 150 157 142 151 178 161 250 248 258 190 178 183 191 182 179 186 196 208 201 194 196 200 207 210
197 196 194 191 190 189 185 186 188 187 186 185 184 189 191 191 194 196 195 189 186 188 186 185 186 181 180 196 198 196 203 205 200 202 207 209 211 206 188 194 210 210 210 212 211 226 230 225 220 226 249 239 253 285 251 197 205 184 187 190 187 160 157 164 165 172 157 168 190 170 224 251 233 129 162 180 186 189 195 201 202 202 199 199 201 205 210 214
196 193 192 190 188 187 184 185 188 187 185 182 181 186 187 185 189 195 192 182 176 179 178 179 178 168 164 189 194 200 207 208 200 193 195 198 203 205 190 191 202 203 204 206 206 222 223 212 212 219 221 196 212 247 212 189 224 209 179 180 188 168 155 164 206 202 158 137 198 213 234 243 175 158 178 183 191 198 205 216 213 201 197 201 206 212 213 214
194 189 189 188 187 186 184 184 187 186 184 181 179 182 179 177 186 190 181 174 173 171 167 169 167 163 192 192 182 191 199 205 202 188 190 192 194 198 192 188 193 199 201 204 211 217 208 200 203 217 204 185 184 209 211 193 206 204 178 190 191 175 166 157 236 228 166 144 197 215 239 247 193 172 182 187 194 195 202 218 219 208 202 203 207 213 215 214
193 187 186 186 186 184 182 184 184 182 182 179 175 174 171 174 182 180 169 162 156 149 146 162 165 168 238 202 191 190 194 201 198 190 189 185 188 189 186 186 189 191 190 197 211 206 199 193 189 207 202 199 202 202 205 190 194 186 177 191 189 192 190 173 185 189 173 186 205 184 222 246 225 182 186 185 182 184 195 207 214 216 212 209 209 211 214 215
190 186 184 184 185 181 180 183 181 178 177 173 167 164 160 161 164 163 162 154 147 143 141 178 178 180 231 189 185 184 192 197 193 190 187 181 181 177 173 183 184 176 169 177 203 197 190 176 177 208 206 198 209 213 212 196 188 181 189 208 186 190 194 156 118 167 161 179 210 190 210 235 234 217 196 189 188 190 194 198 205 212 214 213 212 213 215 216
185 184 182 182 182 179 179 181 180 178 176 172 162 154 149 150 147 148 161 161 162 162 168 183 182 178 95 162 166 168 177 187 188 182 184 183 174 164 163 169 171 170 172 172 187 192 183 170 192 206 210 201 210 224 222 224 213 179 184 232 199 140 132 86 66 295 182 159 210 219 223 237 235 231 214 194 191 195 193 193 201 205 209 211 213 217 219 221
181 180 180 180 179 177 178 178 178 180 180 179 170 161 163 161 158 175 168 169 176 174 183 182 183 194 140 161 165 164 159 163 183 181 180 182 169 159 165 166 163 175 191 171 153 174 179 196 208 197 220 210 204 227 225 248 279 191 175 206 203 153 143 51 61 289 342 72 210 222 229 248 242 238 245 208 188 193 196 197 205 210 213 214 215 219 222 223
179 177 177 178 177 176 177 175 176 178 178 181 179 178 179 170 175 190 167 154 185 190 217 179 178 176 153 163 164 162 155 145 170 180 177 174 167 164 171 173 173 175 185 170 146 159 185 219 203 191 220 223 205 219 219 226 287 281 145 169 200 175 128 57 24 24 11 19 258 282 238 255 258 248 246 230 219 214 209 208 213 215 216 216 217 220 220 219
176 175 176 176 176 174 175 173 173 174 174 183 183 181 184 180 194 181 157 122 170 190 188 173 175 162 148 157 161 158 155 149 158 174 174 170 170 177 176 177 187 173 180 179 160 169 187 209 212 198 203 209 199 195 190 215 263 300 140 154 184 167 136 187 266 34 1 60 70 6 320 274 272 268 254 237 234 233 228 225 223 220 220 219 218 221 220 216
173 173 175 175 174 172 172 170 169 175 179 184 181 170 177 180 161 154 145 105 135 151 163 170 173 168 149 152 164 160 156 157 161 172 174 171 171 178 178 182 188 176 190 185 164 177 185 182 261 221 181 170 154 160 160 179 228 246 210 172 186 164 133 101 141 135 13 23 119 22 331 291 239 233 252 238 227 230 229 222 218 219 219 218 217 216 214 210
172 172 174 174 173 172 171 169 172 179 180 181 176 160 166 168 151 149 139 96 134 130 156 169 171 174 156 152 163 156 142 144 160 173 174 172 172 171 176 187 191 179 189 182 162 176 199 230 276 184 169 176 170 170 178 173 204 252 214 250 228 154 120 105 133 132 63 302 254 98 25 290 245 217 237 227 208 218 215 205 208 213 213 214 215 214 209 207
171 171 172 173 172 169 168 171 177 178 177 179 172 151 159 162 150 148 136 94 167 145 153 170 172 180 173 162 157 141 136 154 168 175 175 175 177 171 170 182 190 180 179 172 158 175 182 358 327 159 161 172 174 197 194 166 185 246 230 281 98 115 116 129 156 154 113 213 281 88 163 265 312 271 243 195 175 203 198 202 215 217 220 221 222 224 222 221
171 172 172 172 172 171 171 174 176 177 179 178 166 151 159 159 152 149 133 90 204 149 147 167 172 181 178 166 157 140 142 164 160 177 178 177 184 182 179 174 146 180 170 144 148 243 107 76 17 145 145 151 167 197 195 167 180 246 287 335 100 115 130 148 155 172 154 130 357 14 159 248 303 289 259 148 157 208 201 217 229 223 224 226 228 231 230 231
171 173 173 173 175 176 177 175 174 178 181 175 162 159 162 160 159 154 130 170 172 137 148 160 165 176 168 164 165 149 138 155 150 180 181 180 187 188 199 184 152 119 122 147 177 257 54 149 171 145 138 148 165 216 212 166 164 238 282 337 96 122 140 150 146 158 96 74 326 268 190 253 269 257 250 134 167 233 223 220 221 211 210 212 215 220 222 225
172 173 173 174 174 175 178 178 176 178 179 173 166 166 165 164 162 149 133 181 146 124 156 150 148 165 159 163 174 161 145 160 149 168 177 181 183 186 222 178 147 93 54 90 145 241 357 157 146 133 146 157 140 11 320 168 159 203 198 49 55 69 91 128 145 132 87 68 235 224 188 195 277 254 217 182 208 231 232 227 200 187 188 192 198 207 218 225
173 174 174 173 171 172 176 177 177 176 174 175 174 169 166 163 155 149 191 187 137 138 154 145 152 163 157 158 176 171 155 153 120 146 167 180 178 184 179 154 139 103 62 54 83 118 6 86 45 65 133 145 131 62 6 74 131 148 147 84 61 40 41 43 72 97 86 256 237 217 188 169 278 263 199 189 226 220 213 194 146 154 168 180 195 207 223 233
174 174 175 174 171 171 170 171 175 174 172 173 170 165 162 156 165 181 170 151 128 134 141 141 152 161 164 164 166 172 158 103 135 148 159 172 171 178 159 148 130 100 89 64 80 92 60 73 59 76 129 151 138 76 21 39 116 121 129 115 80 27 30 25 359 63 113 243 261 301 322 127 225 257 227 208 225 183 154 159 155 150 157 172 192 208 221 232
175 175 176 174 169 168 170 170 172 172 172 170 164 162 159 151 202 203 146 145 149 164 170 162 159 164 172 168 156 164 148 121 159 159 157 162 167 180 177 170 148 133 156 149 114 86 75 78 126 107 183 201 158 93 40 7 352 32 141 127 107 79 69 45 249 187 208 242 268 296 334 271 231 251 256 255 235 182 142 133 161 160 155 164 187 207 221 227
175 175 172 171 168 165 171 171 169 171 172 167 163 164 162 159 189 183 152 164 165 163 167 164 161 161 165 163 153 157 141 138 173 166 159 164 165 186 201 195 178 176 170 148 124 109 91 5 172 125 211 220 192 131 133 224 260 210 166 140 139 142 131 205 202 196 225 259 287 276 293 265 267 269 246 251 249 195 158 131 146 154 156 172 195 208 220 216
174 171 168 169 166 163 169 170 170 171 169 164 163 170 168 169 187 179 167 176 157 152 156 155 151 152 163 167 153 154 139 136 176 165 159 167 167 190 206 197 193 189 120 139 154 160 163 235 200 159 169 198 191 158 154 159 175 208 186 145 166 173 161 187 182 181 200 221 318 295 274 195 212 259 229 220 142 145 147 144 147 153 165 185 201 204 205 202
169 167 167 167 165 163 168 171 173 172 166 164 166 173 175 177 182 178 172 158 146 150 149 147 147 151 168 166 149 162 154 140 185 175 167 179 181 186 191 192 197 188 142 156 177 165 171 208 260 291 328 168 168 284 45 124 157 228 168 123 205 211 145 137 177 178 157 113 313 241 249 217 207 250 220 148 105 121 137 149 154 159 174 187 192 188 186 193
165 165 167 167 167 166 169 172 174 170 167 168 169 177 189 190 175 175 164 146 153 151 142 146 153 158 167 159 159 175 153 130 183 186 174 187 193 187 187 189 191 192 172 158 150 151 166 202 324 338 358 42 120 354 7 104 173 205 136 162 214 184 114 115 230 273 112 168 231 186 253 277 280 282 224 153 140 147 150 160 167 171 177 178 179 177 179 187
163 166 167 169 171 169 170 174 172 169 172 179 183 182 190 189 181 170 145 137 148 148 142 151 167 169 168 166 173 176 148 133 180 190 172 182 199 190 190 191 186 193 194 161 152 191 150 117 333 1 58 356 4 59 55 39 73 110 154 201 200 75 78 120 196 355 87 235 236 172 213 247 238 271 265 141 178 211 197 189 182 179 179 177 177 179 182 186
163 165 168 173 175 170 170 173 171 171 177 195 197 192 180 167 218 163 146 142 147 153 155 160 168 178 175 166 169 169 154 153 181 189 171 179 210 189 184 190 186 192 193 150 128 194 138 107 336 352 86 276 347 81 127 17 31 121 190 231 120 137 255 162 185 196 162 215 261 229 221 224 204 215 212 182 208 218 208 199 189 185 184 180 178 180 185 187
159 158 168 179 177 171 172 171 169 173 183 201 198 198 163 141 323 151 149 147 148 157 167 164 161 178 178 165 160 163 165 169 173 175 175 185 221 192 182 183 182 190 191 151 123 187 139 119 198 318 321 197 18 76 184 197 350 38 358 23 81 160 182 173 197 198 157 185 253 264 229 243 234 208 196 204 210 205 196 197 198 193 189 184 181 183 187 189
157 151 168 181 178 172 170 166 166 177 197 200 190 183 138 134 315 146 146 148 152 162 172 168 164 170 171 164 159 162 173 171 166 179 194 175 183 210 193 182 165 183 186 159 118 154 104 101 150 294 314 176 159 222 195 179 175 164 116 147 175 186 122 117 251 208 147 173 229 247 253 265 252 216 206 203 199 198 192 190 196 193 189 187 186 188 190 190
157 141 163 178 177 168 161 160 170 189 200 201 191 174 145 134 139 125 130 142 143 141 166 164 167 171 163 162 162 164 170 167 170 185 192 175 183 228 204 184 160 164 174 159 141 156 86 107 129 136 198 177 202 294 48 144 169 174 181 185 189 179 132 128 253 228 167 177 196 190 248 275 268 280 268 177 128 122 185 180 182 184 185 187 189 192 194 191
161 126 163 175 174 164 157 156 188 195 197 194 170 137 143 137 145 158 129 127 119 75 121 153 167 172 163 163 163 161 165 167 177 185 194 195 194 203 196 177 160 159 162 157 170 150 86 95 105 120 169 162 260 351 67 92 135 147 228 211 176 176 168 176 213 219 201 199 140 138 253 275 269 318 7 33 65 55 139 168 173 177 181 186 190 191 192 191
147 118 154 170 167 162 161 165 188 193 210 168 123 105 139 141 140 155 151 143 132 108 116 141 163 169 173 169 156 160 170 169 180 189 192 188 183 198 189 170 159 160 159 141 147 145 114 105 103 91 39 16 347 355 73 31 100 160 242 216 177 196 194 186 195 176 173 190 148 149 250 264 276 326 9 352 7 84 137 162 168 174 178 184 190 189 187 189
119 119 143 164 164 164 171 182 181 189 192 164 137 116 139 127 136 156 164 164 157 149 136 137 158 160 168 165 149 163 173 170 187 196 184 164 168 331 177 167 161 160 166 168 171 171 167 146 121 119 95 25 354 321 295 262 207 201 231 197 174 156 123 129 206 120 208 213 175 170 236 249 280 326 333 303 285 241 205 169 165 173 179 184 187 186 187 190
115 117 139 159 166 175 195 205 186 188 180 167 159 153 138 97 129 161 160 151 143 149 141 122 136 126 118 130 122 156 177 173 174 182 160 136 152 6 153 168 167 163 176 175 165 161 166 162 140 143 169 184 199 215 206 191 181 168 359 163 172 170 150 157 204 204 235 227 183 176 237 251 283 318 283 265 258 238 218 189 178 181 185 189 189 188 191 193
127 120 134 159 179 203 238 279 245 192 178 170 165 165 156 137 109 151 148 145 137 141 129 108 125 112 114 146 131 155 184 178 117 160 163 129 118 355 119 161 164 158 152 159 158 150 130 169 166 173 195 201 211 218 156 127 142 184 200 197 193 197 193 184 180 197 215 228 215 214 234 254 264 247 235 243 225 224 221 196 188 185 188 195 195 193 194 195
137 149 147 160 188 212 232 250 245 204 180 176 171 171 168 155 136 129 128 158 181 148 101 75 147 146 157 165 155 163 179 160 114 156 164 132 100 46 75 104 127 136 133 154 159 143 91 185 179 183 203 211 217 221 168 147 170 194 199 204 204 200 194 190 204 213 207 210 238 236 225 243 252 224 203 230 224 218 217 198 195 191 190 197 197 195 196 196
122 148 166 166 172 200 209 206 207 199 178 177 170 163 169 162 157 165 144 112 174 171 124 124 180 181 172 168 163 162 163 151 150 169 154 127 119 104 70 42 62 103 112 149 161 135 122 190 186 185 208 222 223 228 197 178 191 198 201 207 207 200 194 195 212 222 213 206 233 236 224 233 248 231 202 218 215 210 213 207 200 195 192 197 198 195 196 197
102 98 154 165 160 181 158 145 172 196 179 174 173 167 173 174 171 169 132 115 167 202 186 171 189 188 175 170 163 158 165 170 180 182 145 119 129 120 98 59 64 69 70 122 161 89 114 190 188 182 207 227 221 228 228 200 209 210 209 211 205 199 198 200 214 225 223 220 231 238 237 241 248 228 208 226 226 219 213 200 194 196 199 199 198 196 197 199
95 78 142 150 84 136 150 136 155 191 181 175 182 182 178 182 179 164 139 160 174 191 196 186 186 180 174 175 172 176 189 184 174 170 143 122 136 151 151 157 140 109 74 107 150 315 156 198 175 161 207 233 223 229 236 216 223 229 226 222 205 193 196 206 218 226 227 230 239 247 257 263 253 231 228 242 223 200 184 181 192 204 204 199 195 197 201 204
85 79 137 146 73 126 161 157 166 181 181 183 189 183 181 188 179 158 138 181 175 181 191 182 172 169 168 179 188 195 191 179 161 164 161 156 168 174 168 155 144 138 152 161 159 160 173 189 142 137 198 234 218 220 222 209 226 278 269 239 204 189 193 206 214 218 216 221 237 248 254 256 251 237 239 234 193 176 182 189 195 202 202 200 201 203 207 210
87 86 129 143 85 28 167 162 170 184 189 192 189 179 181 188 174 158 154 32 87 174 185 173 156 155 170 187 196 190 169 154 148 164 168 169 172 168 159 157 154 153 163 168 164 167 162 161 150 154 193 231 211 201 202 158 62 279 254 226 209 204 205 209 218 224 216 209 219 233 237 242 244 233 236 231 185 184 199 199 199 205 206 209 212 214 216 217
Height
1425 1428 1429 1432 1435 1438 1442 1446 1449 1453 1456 1459 1462 1466 1469 1472 1474 1478 1481 1484 1488 1490 1493 1496 1498 1501 1502 1505 1507 1509 1511 1512 1514 1515 1517 1520 1523 1525 1526 1528 1530 1531 1531 1532 1532 1532 1531 1532 1532 1533 1534 1535 1535 1534 1533 1533 1532 1533 1534 1536 1538 1535 1533 1531 1530 1532 1534 1538 1539 1540 1540 1541 1544 1545 1546 1547 1548 1550 1551 1552 1553 1554 1555 1555 1556 1557 1558 1559
1423 1425 1427 1430 1433 1436 1440 1444 1448 1451 1454 1457 1460 1464 1467 1470 1473 1477 1480 1483 1487 1490 1492 1495 1498 1500 1502 1504 1507 1509 1510 1512 1513 1514 1517 1521 1523 1525 1526 1528 1530 1531 1532 1532 1533 1533 1532 1532 1533 1534 1535 1535 1534 1534 1533 1532 1532 1532 1533 1535 1535 1532 1530 1528 1528 1530 1532 1536 1539 1539 1540 1541 1542 1544 1546 1547 1548 1550 1551 1552 1553 1554 1555 1555 1556 1557 1558 1559
1420 1423 1425 1429 1432 1435 1439 1442 1446 1449 1452 1455 1458 1462 1466 1469 1472 1476 1479 1482 1485 1489 1491 1494 1497 1499 1501 1504 1506 1509 1510 1512 1512 1512 1517 1520 1522 1524 1526 1528 1529 1531 1533 1533 1533 1533 1532 1531 1533 1535 1535 1535 1534 1533 1533 1532 1531 1531 1532 1535 1533 1528 1528 1528 1529 1531 1533 1536 1537 1539 1541 1541 1542 1543 1545 1547 1547 1549 1549 1551 1552 1552 1553 1554 1555 1556 1557 1558
1417 1421 1423 1427 1430 1434 1437 1440 1444 1447 1450 1453 1456 1460 1464 1467 1471 1474 1478 1481 1484 1488 1490 1493 1495 1498 1501 1503 1506 1509 1511 1513 1511 1510 1517 1519 1521 1523 1525 1527 1529 1531 1533 1533 1533 1532 1532 1531 1532 1534 1535 1534 1533 1533 1532 1531 1531 1530 1531 1532 1529 1526 1528 1531 1530 1532 1533 1535 1537 1539 1541 1542 1543 1544 1545 1545 1547 1549 1548 1548 1549 1550 1550 1552 1554 1555 1556 1557
1414 1418 1421 1424 1429 1432 1436 1439 1442 1445 1449 1452 1455 1458 1462 1465 1469 1473 1476 1479 1483 1486 1489 1492 1494 1497 1500 1503 1506 1508 1513 1517 1511 1510 1516 1517 1520 1523 1525 1527 1529 1531 1532 1532 1532 1532 1532 1531 1532 1533 1534 1533 1532 1533 1531 1530 1530 1530 1530 1529 1527 1526 1529 1532 1531 1533 1534 1535 1537 1539 1541 1542 1543 1544 1544 1545 1546 1548 1547 1547 1547 1548 1548 1550 1552 1554 1555 1557
1412 1416 1418 1422 1427 1431 1434 1437 1440 1444 1447 1450 1454 1457 1460 1463 1467 1471 1475 1478 1481 1485 1488 1490 1493 1496 1499 1502 1505 1507 1512 1515 1509 1507 1512 1515 1519 1522 1525 1527 1528 1531 1531 1531 1531 1532 1532 1531 1532 1532 1532 1531 1531 1531 1530 1529 1529 1530 1529 1528 1528 1527 1529 1532 1531 1533 1535 1536 1538 1539 1540 1541 1543 1544 1544 1544 1545 1546 1546 1547 1547 1547 1548 1550 1551 1553 1555 1556
1411 1414 1416 1420 1425 1429 1432 1435 1438 1442 1445 1449 1453 1455 1459 1462 1466 1470 1473 1476 1480 1483 1486 1489 1492 1495 1499 1502 1505 1508 1509 1508 1506 1506 1508 1513 1519 1521 1524 1526 1527 1531 1531 1530 1531 1531 1532 1532 1532 1532 1531 1531 1529 1529 1529 1528 1528 1529 1529 1528 1529 1529 1529 1531 1532 1534 1535 1537 1538 1539 1540 1541 1542 1544 1544 1544 1545 1546 1546 1547 1547 1547 1548 1550 1551 1553 1554 1555
1409 1413 1415 1418 1423 1427 1430 1433 1436 1440 1444 1448 1451 1454 1458 1461 1465 1468 1472 1475 1478 1482 1484 1487 1491 1494 1498 1501 1504 1507 1506 1504 1506 1508 1509 1513 1517 1520 1523 1525 1527 1530 1530 1530 1530 1532 1533 1532 1532 1531 1531 1529 1527 1527 1526 1527 1528 1528 1528 1528 1529 1530 1530 1530 1532 1534 1535 1536 1538 1539 1540 1541 1542 1543 1543 1543 1544 1545 1546 1547 1548 1548 1548 1549 1551 1552 1554 1555
1406 1410 1413 1417 1420 1424 1428 1431 1435 1439 1442 1446 1450 1454 1457 1461 1464 1467 1470 1473 1476 1480 1483 1486 1490 1493 1496 1499 1503 1505 1502 1503 1507 1509 1510 1511 1513 1517 1520 1523 1526 1529 1529 1529 1530 1532 1533 1532 1532 1531 1531 1528 1526 1525 1524 1527 1528 1526 1526 1527 1528 1530 1530 1531 1532 1534 1535 1536 1537 1539 1540 1541 1541 1543 1542 1541 1542 1544 1544 1546 1547 1548 1548 1549 1550 1551 1553 1554
1403 1407 1411 1415 1418 1422 1426 1430 1434 1437 1441 1445 1449 1453 1456 1460 1463 1466 1469 1472 1475 1478 1481 1485 1489 1492 1495 1498 1502 1502 1500 1503 1508 1510 1510 1510 1512 1515 1518 1522 1525 1528 1529 1527 1529 1531 1531 1531 1531 1531 1530 1528 1525 1524 1524 1526 1525 1524 1526 1527 1528 1529 1530 1531 1532 1534 1535 1536 1537 1538 1540 1541 1541 1543 1542 1540 1541 1542 1543 1545 1546 1547 1548 1548 1549 1550 1551 1553
1400 1405 1409 1412 1416 1420 1424 1428 1432 1436 1440 1444 1448 1452 1455 1459 1463 1466 1468 1471 1473 1476 1480 1485 1488 1491 1493 1496 1498 1499 1500 1504 1507 1509 1510 1510 1512 1514 1517 1521 1524 1527 1528 1527 1528 1529 1530 1531 1531 1531 1530 1528 1525 1523 1523 1524 1523 1523 1526 1528 1529 1530 1530 1531 1532 1534 1535 1536 1537 1538 1539 1540 1542 1543 1540 1539 1540 1541 1542 1544 1545 1546 1547 1547 1548 1549 1550 1551
1397 1402 1406 1409 1414 1418 1422 1427 1431 1435 1439 1443 1447 1451 1454 1458 1462 1465 1467 1470 1473 1475 1480 1484 1488 1490 1493 1495 1496 1497 1501 1503 1504 1508 1509 1510 1513 1515 1518 1522 1523 1525 1526 1527 1528 1528 1530 1531 1531 1531 1529 1528 1526 1524 1524 1523 1523 1524 1524 1529 1532 1530 1531 1532 1532 1533 1534 1536 1537 1537 1541 1543 1541 1538 1536 1537 1539 1540 1541 1542 1543 1544 1546 1547 1547 1548 1549 1550
1394 1399 1403 1407 1412 1416 1421 1426 1430 1434 1438 1442 1446 1450 1453 1457 1461 1465 1467 1470 1472 1475 1479 1483 1487 1488 1491 1495 1495 1498 1502 1503 1504 1506 1508 1509 1512 1514 1517 1521 1521 1523 1525 1526 1527 1528 1530 1531 1531 1530 1529 1528 1527 1526 1524 1523 1524 1525 1524 1528 1533 1534 1533 1531 1531 1533 1533 1536 1536 1538 1545 1543 1536 1532 1533 1536 1537 1538 1540 1541 1542 1543 1544 1545 1546 1547 1547 1548
1390 1396 1400 1405 1410 1414 1419 1424 1428 1432 1436 1441 1445 1449 1453 1456 1461 1464 1467 1469 1471 1475 1479 1483 1486 1488 1491 1494 1495 1499 1502 1503 1503 1504 1506 1508 1510 1513 1515 1518 1519 1521 1524 1525 1527 1527 1528 1530 1530 1530 1528 1528 1528 1526 1524 1523 1524 1525 1526 1527 1531 1536 1535 1529 1530 1532 1533 1537 1535 1538 1546 1541 1532 1531 1533 1535 1536 1537 1539 1540 1541 1542 1542 1544 1545 1545 1546 1546
1387 1391 1397 1403 1408 1413 1418 1423 1427 1431 1435 1440 1445 1449 1452 1456 1461 1465 1468 1470 1471 1474 1477 1482 1485 1488 1492 1494 1496 1499 1500 1501 1502 1502 1504 1506 1508 1510 1512 1516 1518 1520 1523 1524 1526 1527 1527 1529 1530 1529 1528 1527 1528 1528 1526 1525 1524 1523 1529 1532 1529 1533 1536 1531 1530 1530 1532 1536 1535 1538 1544 1539 1533 1533 1532 1533 1535 1537 1538 1539 1540 1540 1541 1542 1543 1544 1544 1545
1382 1388 1394 1400 1406 1411 1416 1421 1426 1429 1434 1439 1444 1448 1452 1457 1461 1465 1468 1470 1473 1475 1478 1482 1485 1489 1493 1493 1495 1496 1497 1498 1500 1501 1503 1504 1507 1509 1511 1514 1516 1519 1522 1524 1525 1526 1527 1528 1528 1527 1527 1527 1528 1528 1528 1529 1529 1524 1527 1534 1530 1531 1537 1535 1531 1530 1530 1533 1534 1537 1539 1536 1533 1533 1532 1533 1534 1536 1537 1538 1539 1540 1540 1541 1542 1542 1543 1543
1379 1384 1390 1398 1404 1409 1415 1420 1424 1428 1432 1437 1443 1448 1453 1457 1461 1466 1469 1472 1474 1476 1479 1483 1487 1492 1493 1490 1490 1491 1492 1495 1498 1500 1501 1503 1506 1507 1510 1512 1515 1518 1521 1523 1525 1526 1526 1526 1527 1526 1525 1526 1526 1527 1532 1536 1534 1527 1526 1530 1528 1528 1535 1536 1533 1530 1529 1532 1534 1535 1536 1534 1532 1532 1532 1532 1533 1534 1536 1537 1538 1539 1539 1540 1540 1541 1541 1542
1376 1381 1388 1395 1401 1407 1413 1418 1422 1426 1430 1435 1442 1447 1452 1458 1463 1467 1470 1472 1475 1480 1485 1489 1491 1494 1490 1484 1485 1487 1489 1493 1496 1499 1500 1502 1504 1506 1509 1511 1514 1517 1520 1523 1524 1525 1525 1524 1524 1525 1524 1525 1525 1526 1533 1536 1531 1529 1528 1529 1528 1527 1528 1532 1532 1529 1528 1531 1532 1535 1537 1533 1531 1532 1531 1531 1532 1533 1534 1535 1537 1537 1538 1539 1539 1539 1540 1540
1372 1379 1386 1393 1399 1405 1411 1415 1419 1424 1427 1433 1441 1446 1453 1459 1465 1469 1470 1470 1472 1477 1481 1481 1483 1484 1478 1476 1481 1485 1487 1492 1495 1498 1499 1500 1503 1506 1508 1511 1513 1516 1519 1522 1523 1522 1523 1523 1525 1526 1525 1525 1523 1523 1526 1526 1522 1524 1526 1525 1527 1527 1526 1528 1530 1528 1528 1532 1533 1533 1535 1532 1530 1531 1530 1530 1530 1531 1532 1533 1535 1536 1536 1537 1538 1538 1538 1539
1369 1377 1384 1391 1397 1402 1408 1412 1416 1420 1423 1428 1436 1443 1450 1456 1463 1469 1470 1469 1466 1467 1469 1469 1473 1474 1471 1472 1478 1483 1487 1491 1494 1496 1498 1499 1502 1505 1508 1511 1512 1515 1517 1519 1520 1520 1520 1523 1525 1525 1523 1522 1521 1520 1519 1518 1517 1520 1523 1525 1525 1526 1528 1531 1531 1530 1529 1532 1533 1531 1531 1530 1528 1527 1527 1527 1529 1529 1530 1531 1532 1533 1534 1535 1536 1536 1537 1538
1367 1375 1382 1390 1396 1400 1406 1409 1413 1417 1420 1425 1430 1436 1439 1440 1445 1449 1454 1464 1466 1465 1467 1469 1473 1475 1472 1473 1476 1479 1483 1489 1492 1494 1497 1499 1501 1504 1507 1509 1511 1514 1515 1515 1517 1517 1519 1523 1523 1520 1519 1518 1518 1518 1517 1517 1516 1517 1521 1526 1527 1526 1531 1533 1532 1531 1530 1532 1532 1529 1530 1529 1527 1526 1524 1525 1527 1527 1528 1528 1529 1530 1531 1532 1533 1534 1535 1536
1366 1373 1380 1388 1394 1398 1403 1407 1412 1416 1420 1425 1429 1433 1433 1432 1432 1431 1438 1456 1465 1466 1468 1469 1473 1474 1473 1474 1476 1477 1480 1485 1490 1493 1495 1498 1501 1503 1505 1507 1509 1511 1512 1513 1517 1519 1521 1521 1517 1516 1516 1515 1516 1516 1516 1517 1517 1517 1520 1525 1528 1528 1531 1534 1533 1531 1531 1533 1532 1530 1532 1530 1525 1524 1523 1523 1524 1524 1524 1524 1525 1527 1527 1529 1530 1531 1533 1534
1364 1370 1379 1387 1392 1397 1402 1406 1411 1416 1419 1422 1426 1431 1435 1436 1435 1434 1441 1454 1463 1466 1467 1468 1471 1473 1472 1474 1476 1477 1479 1481 1486 1490 1493 1496 1499 1501 1503 1505 1507 1508 1509 1511 1515 1520 1523 1519 1513 1513 1514 1513 1514 1515 1516 1518 1519 1519 1521 1525 1529 1528 1529 1533 1535 1534 1533 1534 1535 1534 1534 1530 1526 1524 1521 1520 1520 1520 1521 1522 1522 1523 1524 1525 1527 1528 1529 1531
1363 1369 1378 1384 1391 1396 1400 1407 1412 1415 1417 1420 1425 1430 1434 1438 1437 1438 1444 1453 1461 1465 1466 1468 1470 1470 1471 1472 1474 1477 1480 1481 1483 1487 1491 1494 1497 1500 1501 1502 1504 1506 1507 1507 1510 1517 1518 1515 1512 1511 1512 1513 1515 1516 1517 1520 1523 1521 1520 1524 1526 1526 1527 1530 1534 1536 1534 1535 1535 1535 1536 1530 1523 1523 1519 1515 1517 1517 1517 1519 1519 1520 1521 1522 1524 1525 1526 1528
1361 1369 1376 1383 1390 1394 1400 1407 1409 1412 1416 1421 1425 1427 1432 1437 1436 1438 1442 1453 1463 1465 1466 1468 1469 1470 1470 1471 1474 1476 1479 1482 1484 1486 1489 1492 1495 1498 1499 1500 1502 1504 1505 1505 1509 1513 1513 1512 1512 1511 1511 1512 1515 1518 1517 1521 1525 1523 1521 1521 1522 1524 1527 1530 1534 1535 1537 1539 1534 1535 1542 1533 1517 1516 1516 1512 1513 1514 1514 1515 1516 1517 1518 1520 1521 1522 1524 1525
1360 1368 1374 1381 1387 1392 1400 1404 1406 1411 1416 1421 1423 1424 1430 1433 1435 1437 1439 1453 1464 1464 1465 1466 1466 1468 1469 1471 1473 1476 1481 1483 1484 1486 1488 1492 1494 1495 1497 1498 1500 1502 1502 1503 1507 1511 1512 1512 1512 1511 1511 1513 1516 1519 1517 1519 1525 1527 1523 1520 1520 1522 1527 1531 1533 1534 1538 1540 1535 1534 1542 1537 1520 1514 1513 1511 1512 1513 1513 1514 1513 1515 1516 1516 1518 1519 1521 1523
1359 1366 1372 1379 1384 1388 1392 1396 1402 1408 1411 1416 1419 1422 1427 1430 1434 1433 1440 1462 1466 1458 1461 1464 1464 1466 1467 1470 1471 1474 1481 1481 1483 1487 1487 1491 1493 1494 1496 1496 1498 1500 1499 1503 1510 1512 1512 1513 1513 1511 1512 1515 1517 1519 1517 1517 1525 1527 1523 1521 1521 1523 1527 1530 1531 1533 1535 1537 1537 1536 1537 1541 1535 1521 1511 1510 1513 1513 1513 1513 1512 1513 1514 1514 1516 1517 1518 1520
1358 1365 1371 1377 1381 1385 1387 1390 1396 1401 1405 1413 1417 1421 1424 1427 1432 1430 1443 1468 1464 1450 1456 1461 1462 1465 1466 1469 1471 1472 1476 1475 1481 1487 1487 1490 1493 1493 1494 1494 1496 1499 1498 1502 1511 1514 1511 1512 1513 1511 1513 1517 1518 1519 1517 1516 1523 1525 1524 1523 1522 1522 1526 1527 1529 1533 1533 1535 1541 1539 1536 1543 1540 1521 1512 1512 1513 1514 1512 1511 1511 1510 1511 1513 1514 1515 1516 1517
1357 1364 1370 1376 1382 1388 1390 1392 1394 1398 1407 1414 1417 1421 1422 1426 1432 1430 1442 1458 1452 1445 1452 1457 1461 1464 1465 1469 1471 1472 1473 1474 1478 1483 1486 1490 1492 1493 1494 1493 1494 1498 1499 1500 1507 1513 1513 1513 1513 1511 1513 1516 1518 1520 1518 1516 1520 1523 1523 1523 1522 1523 1525 1527 1530 1532 1535 1540 1542 1538 1536 1543 1538 1519 1514 1516 1514 1513 1510 1507 1508 1508 1510 1512 1512 1514 1514 1515
1357 1363 1370 1376 1381 1385 1390 1394 1398 1403 1409 1414 1417 1420 1423 1428 1431 1437 1448 1448 1442 1446 1450 1454 1459 1461 1463 1468 1471 1472 1473 1475 1477 1481 1487 1489 1491 1492 1492 1493 1494 1498 1502 1504 1509 1514 1513 1513 1513 1513 1515 1517 1519 1521 1520 1518 1519 1521 1523 1524 1526 1528 1527 1530 1530 1530 1540 1546 1541 1537 1533 1538 1540 1521 1511 1514 1511 1508 1507 1506 1507 1508 1509 1511 1512 1513 1513 1513
1357 1363 1369 1373 1377 1381 1385 1391 1398 1405 1410 1413 1417 1421 1426 1429 1429 1440 1448 1437 1436 1448 1450 1453 1457 1458 1461 1464 1468 1472 1472 1476 1477 1480 1486 1488 1490 1491 1490 1493 1495 1500 1505 1507 1512 1515 1514 1515 1515 1515 1517 1517 1518 1520 1521 1520 1520 1521 1522 1525 1532 1535 1535 1537 1536 1537 1548 1549 1542 1542 1538 1539 1542 1524 1506 1507 1506 1504 1505 1505 1507 1508 1509 1511 1511 1512 1512 1512
1358 1364 1369 1374 1378 1381 1383 1387 1395 1403 1408 1411 1416 1420 1423 1431 1434 1436 1437 1430 1435 1447 1447 1448 1451 1453 1458 1460 1465 1469 1471 1476 1478 1478 1482 1485 1490 1489 1488 1490 1492 1501 1510 1510 1513 1515 1515 1516 1516 1517 1517 1516 1517 1520 1524 1524 1522 1522 1522 1526 1536 1543 1547 1550 1548 1547 1550 1548 1544 1545 1542 1540 1537 1520 1507 1506 1504 1503 1504 1503 1504 1506 1508 1510 1510 1511 1511 1511
1359 1365 1371 1376 1379 1383 1386 1390 1396 1402 1407 1410 1416 1417 1419 1431 1435 1427 1427 1430 1432 1435 1437 1441 1444 1449 1456 1461 1465 1467 1470 1475 1476 1477 1480 1483 1488 1489 1487 1487 1487 1493 1502 1507 1513 1516 1518 1519 1516 1517 1517 1515 1514 1518 1525 1526 1523 1523 1522 1527 1535 1545 1556 1558 1553 1549 1548 1547 1546 1544 1544 1542 1531 1515 1506 1504 1502 1501 1502 1503 1504 1505 1507 1508 1509 1509 1510 1510
1360 1366 1372 1376 1380 1383 1387 1393 1397 1401 1406 1410 1414 1416 1420 1429 1425 1418 1424 1427 1425 1427 1432 1437 1443 1450 1456 1459 1463 1465 1469 1476 1475 1475 1480 1483 1488 1490 1487 1485 1484 1485 1491 1502 1508 1510 1516 1518 1515 1515 1515 1513 1513 1515 1518 1519 1521 1521 1517 1521 1528 1533 1543 1549 1545 1543 1545 1548 1549 1547 1543 1535 1524 1511 1502 1500 1501 1501 1502 1502 1504 1504 1506 1507 1508 1508 1509 1509
1362 1368 1372 1376 1380 1384 1387 1393 1397 1400 1406 1409 1411 1415 1419 1420 1414 1413 1419 1420 1421 1427 1431 1435 1442 1451 1457 1458 1461 1462 1465 1473 1475 1475 1479 1480 1482 1484 1483 1483 1482 1481 1487 1497 1502 1502 1508 1512 1512 1514 1512 1511 1514 1514 1513 1515 1521 1521 1515 1520 1526 1522 1525 1537 1541 1537 1539 1546 1548 1547 1538 1523 1512 1505 1500 1501 1502 1501 1503 1503 1503 1505 1505 1506 1507 1508 1508 1508
1363 1368 1373 1376 1380 1383 1387 1392 1396 1401 1405 1406 1409 1413 1411 1405 1404 1406 1409 1411 1416 1421 1429 1439 1444 1449 1457 1460 1461 1462 1462 1467 1472 1474 1477 1477 1477 1478 1478 1477 1477 1478 1480 1488 1494 1497 1504 1512 1515 1515 1513 1513 1514 1515 1513 1515 1519 1520 1519 1522 1522 1519 1519 1531 1541 1538 1537 1541 1539 1536 1530 1517 1510 1504 1498 1501 1502 1501 1503 1503 1503 1504 1504 1505 1506 1507 1507 1507
1362 1366 1371 1376 1379 1383 1387 1391 1396 1401 1404 1404 1405 1405 1400 1397 1399 1401 1403 1407 1413 1416 1424 1437 1441 1443 1450 1455 1458 1459 1460 1465 1470 1471 1474 1476 1474 1472 1472 1473 1473 1474 1475 1478 1485 1488 1496 1512 1518 1514 1515 1515 1514 1515 1514 1514 1516 1518 1522 1521 1517 1520 1520 1522 1533 1539 1540 1540 1532 1527 1524 1516 1514 1509 1501 1501 1503 1502 1502 1502 1503 1504 1504 1505 1505 1506 1507 1506
1359 1366 1371 1375 1378 1382 1386 1391 1396 1400 1403 1403 1402 1397 1394 1397 1398 1398 1400 1404 1410 1416 1421 1429 1434 1435 1440 1448 1453 1455 1457 1464 1469 1469 1471 1473 1469 1464 1467 1470 1470 1471 1472 1473 1480 1481 1486 1506 1520 1517 1516 1516 1514 1515 1516 1516 1516 1516 1518 1517 1517 1524 1526 1523 1529 1536 1539 1539 1531 1523 1521 1516 1513 1508 1501 1501 1502 1501 1500 1501 1502 1502 1502 1503 1504 1505 1505 1506
1361 1367 1373 1375 1378 1382 1386 1391 1396 1400 1402 1401 1398 1396 1394 1396 1398 1396 1398 1402 1406 1414 1419 1422 1426 1430 1436 1442 1446 1451 1454 1458 1465 1467 1468 1470 1468 1462 1461 1465 1468 1471 1472 1472 1477 1479 1480 1496 1515 1519 1516 1516 1516 1516 1516 1516 1517 1517 1517 1517 1518 1520 1522 1522 1523 1525 1530 1535 1530 1524 1523 1517 1507 1499 1495 1495 1495 1495 1497 1499 1499 1499 1500 1501 1502 1503 1504 1505
1361 1365 1371 1374 1377 1381 1386 1392 1397 1400 1399 1393 1391 1392 1392 1395 1398 1397 1398 1401 1404 1411 1414 1416 1420 1425 1431 1436 1441 1446 1450 1454 1460 1463 1462 1464 1466 1463 1460 1461 1465 1468 1471 1473 1475 1479 1481 1488 1507 1520 1518 1516 1517 1514 1512 1512 1515 1517 1518 1519 1519 1518 1520 1521 1519 1516 1520 1528 1528 1526 1526 1513 1497 1492 1490 1489 1490 1491 1492 1495 1496 1497 1498 1499 1500 1501 1502 1504
1360 1363 1368 1373 1376 1380 1386 1393 1397 1396 1392 1387 1387 1390 1391 1394 1398 1399 1399 1400 1403 1407 1409 1411 1416 1420 1424 1431 1437 1442 1446 1452 1456 1458 1458 1459 1461 1461 1458 1458 1462 1466 1471 1476 1476 1479 1483 1488 1505 1521 1520 1516 1514 1512 1510 1510 1511 1512 1514 1514 1515 1516 1520 1525 1524 1517 1515 1521 1522 1523 1525 1510 1492 1490 1490 1488 1490 1490 1489 1492 1494 1495 1497 1498 1499 1500 1501 1503
1358 1360 1365 1370 1374 1378 1383 1389 1390 1387 1386 1387 1387 1389 1391 1394 1397 1399 1400 1401 1403 1406 1407 1409 1413 1417 1420 1425 1430 1436 1442 1447 1452 1452 1453 1454 1454 1455 1454 1455 1459 1463 1468 1474 1477 1477 1481 1491 1507 1518 1517 1514 1514 1513 1514 1513 1511 1511 1512 1511 1511 1513 1515 1521 1525 1519 1516 1520 1519 1521 1525 1509 1491 1491 1492 1490 1491 1490 1490 1491 1492 1494 1495 1496 1498 1499 1500 1502
1355 1358 1365 1370 1374 1377 1381 1385 1388 1387 1387 1387 1387 1389 1391 1393 1395 1398 1400 1401 1404 1406 1407 1409 1411 1415 1418 1421 1426 1433 1437 1442 1446 1446 1447 1450 1451 1452 1453 1454 1457 1461 1465 1472 1476 1477 1480 1489 1504 1514 1515 1513 1513 1513 1513 1513 1512 1512 1512 1510 1509 1510 1509 1512 1515 1514 1516 1520 1518 1523 1526 1508 1491 1492 1493 1492 1492 1491 1491 1491 1492 1493 1495 1496 1498 1498 1499 1501
1353 1358 1366 1372 1377 1379 1379 1379 1380 1383 1384 1385 1387 1391 1392 1392 1394 1397 1398 1401 1403 1405 1407 1409 1409 1413 1416 1418 1423 1429 1433 1439 1444 1444 1444 1448 1451 1452 1453 1453 1455 1459 1463 1465 1468 1472 1478 1486 1496 1511 1518 1517 1517 1516 1513 1513 1513 1510 1507 1507 1509 1508 1508 1511 1512 1512 1517 1517 1514 1521 1523 1505 1492 1494 1494 1493 1493 1492 1491 1492 1492 1493 1494 1495 1497 1498 1499 1500
1351 1360 1369 1374 1377 1378 1376 1374 1373 1376 1381 1383 1387 1390 1390 1392 1395 1395 1397 1400 1401 1403 1406 1409 1410 1412 1415 1418 1423 1427 1429 1434 1440 1443 1444 1447 1451 1454 1453 1453 1455 1457 1459 1461 1462 1466 1475 1481 1487 1501 1511 1513 1512 1509 1504 1505 1509 1509 1507 1506 1508 1509 1509 1510 1512 1516 1520 1515 1510 1514 1512 1499 1492 1494 1494 1493 1493 1492 1491 1492 1492 1493 1494 1495 1496 1497 1498 1498
1346 1356 1368 1376 1379 1377 1374 1374 1374 1375 1378 1381 1385 1387 1389 1393 1396 1395 1397 1400 1402 1402 1405 1409 1410 1413 1416 1419 1424 1428 1429 1430 1436 1440 1443 1447 1453 1455 1454 1455 1456 1458 1460 1462 1462 1466 1473 1477 1479 1487 1494 1495 1494 1492 1490 1494 1502 1507 1506 1504 1505 1506 1507 1508 1512 1516 1515 1512 1511 1509 1503 1496 1493 1492 1493 1492 1492 1492 1490 1490 1491 1491 1492 1493 1494 1496 1497 1497
1344 1349 1356 1364 1373 1375 1375 1376 1374 1373 1373 1376 1381 1383 1386 1391 1395 1397 1398 1400 1401 1402 1406 1409 1410 1412 1416 1419 1423 1428 1429 1431 1435 1437 1441 1448 1454 1456 1456 1456 1457 1459 1460 1462 1463 1466 1472 1477 1478 1480 1482 1483 1483 1484 1485 1489 1494 1498 1500 1501 1502 1503 1505 1508 1511 1508 1506 1511 1513 1504 1497 1496 1491 1488 1490 1489 1489 1491 1490 1489 1489 1489 1491 1492 1493 1495 1497 1497
1343 1348 1350 1351 1356 1361 1365 1368 1369 1370 1371 1374 1378 1380 1385 1390 1393 1395 1398 1400 1400 1401 1405 1410 1410 1409 1411 1414 1419 1425 1429 1433 1437 1437 1439 1447 1453 1456 1458 1459 1460 1461 1461 1463 1465 1465 1470 1475 1476 1477 1479 1480 1481 1483 1484 1486 1489 1491 1493 1496 1498 1501 1505 1507 1506 1501 1500 1507 1506 1495 1492 1493 1486 1485 1487 1485 1485 1487 1486 1486 1487 1488 1490 1491 1492 1494 1495 1496
1342 1347 1351 1352 1352 1353 1357 1362 1367 1370 1371 1373 1377 1380 1383 1387 1389 1391 1394 1399 1401 1401 1401 1407 1409 1409 1410 1412 1416 1422 1426 1430 1434 1435 1438 1445 1450 1453 1458 1461 1462 1463 1463 1464 1467 1467 1469 1473 1474 1476 1479 1480 1480 1483 1483 1485 1487 1488 1489 1490 1493 1497 1501 1502 1501 1497 1497 1499 1494 1487 1489 1488 1482 1483 1484 1482 1483 1484 1483 1485 1486 1487 1488 1488 1490 1492 1493 1495
1344 1346 1349 1353 1355 1356 1360 1365 1369 1371 1371 1373 1377 1378 1380 1383 1386 1389 1391 1394 1398 1400 1399 1402 1405 1407 1409 1411 1414 1417 1418 1419 1424 1430 1435 1442 1447 1449 1453 1456 1459 1464 1466 1466 1468 1469 1471 1473 1474 1478 1483 1483 1481 1482 1483 1484 1486 1487 1487 1487 1489 1493 1498 1499 1498 1495 1495 1496 1491 1489 1492 1488 1479 1479 1481 1480 1481 1482 1482 1484 1483 1484 1485 1486 1488 1490 1491 1492
1346 1347 1347 1351 1356 1359 1362 1364 1368 1371 1372 1372 1374 1375 1377 1380 1382 1386 1391 1391 1392 1395 1396 1398 1402 1406 1409 1411 1412 1413 1414 1415 1419 1423 1426 1431 1437 1440 1444 1447 1452 1460 1465 1466 1467 1468 1471 1474 1475 1480 1488 1486 1480 1481 1483 1483 1486 1490 1490 1488 1487 1489 1491 1492 1490 1487 1490 1493 1493 1495 1495 1484 1475 1477 1480 1479 1479 1480 1480 1481 1481 1482 1484 1485 1486 1487 1488 1488
1347 1349 1348 1350 1356 1361 1362 1363 1367 1370 1369 1368 1369 1372 1375 1378 1380 1384 1391 1393 1392 1392 1395 1398 1401 1406 1409 1411 1411 1412 1413 1416 1419 1422 1425 1427 1431 1435 1438 1441 1445 1452 1458 1462 1464 1465 1468 1471 1473 1479 1485 1482 1477 1480 1483 1487 1494 1496 1489 1483 1481 1481 1481 1483 1483 1482 1483 1486 1490 1491 1484 1473 1471 1476 1478 1477 1477 1479 1478 1478 1479 1480 1481 1482 1482 1483 1484 1485